QPF
0.02 0.01 0.00 0.01 0.01 0.02 0.02 0.02 0.01 0.02 0.02 0.02 0.03 0.03 0.02 0.02 0.02 0.02 0.02 0.03 0.03 0.03 0.02 0.03 0.03 0.03 0.03 0.03 0.02 0.03 0.03 0.03 0.03 0.01 0.01 0.01 0.01 0.01 0.01 0.01 0.01 0.01 0.02
0.01 0.01 0.00 0.01 0.01 0.02 0.01 0.01 0.01 0.01 0.02 0.03 0.02 0.02 0.02 0.03 0.02 0.02 0.03 0.04 0.03 0.02 0.02 0.03 0.04 0.04 0.03 0.02 0.02 0.02 0.01 0.01 0.01 0.01 0.01 0.01 0.01 0.01 0.01 0.01 0.01 0.02 0.02
0.01 0.02 0.01 0.01 0.01 0.02 0.01 0.01 0.01 0.01 0.01 0.02 0.01 0.01 0.02 0.03 0.04 0.05 0.04 0.05 0.03 0.02 0.02 0.03 0.03 0.04 0.04 0.03 0.03 0.02 0.01 0.01 0.01 0.01 0.01 0.01 0.01 0.01 0.01 0.01 0.01 0.02 0.02
0.02 0.03 0.02 0.01 0.01 0.02 0.01 0.01 0.01 0.01 0.01 0.01 0.01 0.01 0.01 0.02 0.02 0.03 0.04 0.04 0.03 0.02 0.02 0.02 0.03 0.03 0.03 0.04 0.03 0.02 0.01 0.01 0.01 0.01 0.01 0.01 0.01 0.01 0.01 0.01 0.01 0.02 0.02
0.03 0.03 0.03 0.02 0.02 0.02 0.02 0.01 0.01 0.01 0.01 0.01 0.01 0.01 0.02 0.02 0.02 0.03 0.03 0.04 0.02 0.02 0.01 0.02 0.02 0.03 0.03 0.03 0.03 0.02 0.01 0.01 0.01 0.01 0.01 0.01 0.01 0.02 0.02 0.01 0.01 0.02 0.02
0.02 0.03 0.03 0.03 0.02 0.03 0.02 0.01 0.01 0.01 0.01 0.01 0.02 0.02 0.02 0.02 0.02 0.02 0.03 0.03 0.02 0.02 0.01 0.01 0.02 0.02 0.02 0.03 0.03 0.03 0.02 0.02 0.01 0.02 0.02 0.02 0.01 0.02 0.01 0.01 0.02 0.02 0.01
0.02 0.02 0.02 0.03 0.03 0.04 0.03 0.02 0.01 0.01 0.01 0.01 0.02 0.02 0.03 0.02 0.02 0.02 0.02 0.02 0.03 0.02 0.01 0.01 0.01 0.02 0.02 0.03 0.03 0.03 0.04 0.03 0.02 0.02 0.02 0.02 0.01 0.02 0.01 0.01 0.02 0.01 0.01
0.01 0.02 0.02 0.02 0.04 0.04 0.04 0.02 0.01 0.01 0.01 0.02 0.03 0.03 0.02 0.02 0.02 0.02 0.02 0.02 0.03 0.03 0.02 0.01 0.01 0.02 0.02 0.03 0.03 0.03 0.05 0.05 0.03 0.02 0.02 0.02 0.02 0.02 0.02 0.02 0.01 0.01 0.01
0.01 0.01 0.02 0.02 0.09 0.09 0.04 0.02 0.01 0.01 0.02 0.02 0.03 0.03 0.03 0.02 0.02 0.02 0.02 0.02 0.03 0.02 0.01 0.01 0.01 0.01 0.01 0.02 0.02 0.03 0.04 0.05 0.04 0.02 0.02 0.02 0.02 0.02 0.01 0.01 0.01 0.01 0.01
0.01 0.02 0.03 0.03 0.16 0.20 0.06 0.02 0.01 0.01 0.02 0.03 0.04 0.04 0.03 0.02 0.02 0.02 0.01 0.02 0.02 0.01 0.01 0.01 0.01 0.01 0.01 0.01 0.02 0.02 0.03 0.02 0.03 0.02 0.02 0.01 0.01 0.01 0.01 0.01 0.01 0.01 0.01
0.02 0.02 0.04 0.04 0.13 0.19 0.09 0.03 0.01 0.01 0.02 0.03 0.03 0.03 0.03 0.03 0.02 0.01 0.01 0.02 0.01 0.01 0.01 0.01 0.00 0.00 0.01 0.01 0.01 0.02 0.03 0.03 0.02 0.01 0.01 0.01 0.02 0.02 0.01 0.01 0.02 0.01 0.01
0.02 0.02 0.03 0.04 0.07 0.09 0.07 0.04 0.03 0.02 0.03 0.04 0.04 0.04 0.04 0.04 0.03 0.02 0.01 0.01 0.01 0.01 0.01 0.01 0.00 0.00 0.01 0.01 0.01 0.01 0.02 0.03 0.03 0.02 0.01 0.01 0.01 0.01 0.01 0.01 0.01 0.01 0.00
0.03 0.03 0.03 0.05 0.07 0.06 0.05 0.04 0.03 0.03 0.02 0.04 0.04 0.05 0.05 0.05 0.04 0.03 0.01 0.01 0.01 0.00 0.00 0.00 0.00 0.00 0.00 0.01 0.01 0.01 0.02 0.03 0.03 0.04 0.02 0.01 0.01 0.01 0.01 0.01 0.01 0.01 0.01
0.03 0.04 0.04 0.05 0.08 0.07 0.05 0.04 0.03 0.03 0.03 0.03 0.05 0.06 0.06 0.04 0.03 0.03 0.02 0.01 0.01 0.01 0.00 0.00 0.00 0.00 0.01 0.01 0.01 0.01 0.02 0.03 0.03 0.03 0.03 0.02 0.01 0.01 0.01 0.00 0.01 0.01 0.01
0.03 0.03 0.04 0.05 0.07 0.10 0.09 0.07 0.05 0.03 0.02 0.02 0.04 0.07 0.07 0.03 0.02 0.02 0.02 0.02 0.02 0.01 0.01 0.01 0.00 0.00 0.01 0.01 0.01 0.01 0.02 0.03 0.04 0.04 0.04 0.03 0.01 0.01 0.01 0.00 0.01 0.01 0.01
0.03 0.03 0.04 0.05 0.06 0.07 0.08 0.08 0.07 0.05 0.03 0.02 0.03 0.05 0.07 0.05 0.02 0.02 0.03 0.03 0.02 0.02 0.01 0.01 0.01 0.01 0.01 0.01 0.01 0.01 0.01 0.03 0.05 0.05 0.06 0.03 0.01 0.01 0.01 0.01 0.01 0.01 0.01
0.03 0.04 0.04 0.04 0.05 0.05 0.04 0.04 0.04 0.03 0.02 0.02 0.02 0.05 0.07 0.07 0.03 0.02 0.03 0.04 0.03 0.02 0.01 0.01 0.01 0.01 0.01 0.01 0.01 0.01 0.01 0.02 0.04 0.06 0.08 0.06 0.03 0.01 0.01 0.01 0.00 0.00 0.01
0.03 0.04 0.05 0.04 0.05 0.05 0.04 0.03 0.04 0.03 0.02 0.01 0.02 0.04 0.07 0.08 0.05 0.03 0.02 0.03 0.04 0.05 0.04 0.02 0.01 0.01 0.02 0.02 0.01 0.01 0.02 0.01 0.02 0.04 0.06 0.07 0.05 0.03 0.01 0.01 0.00 0.00 0.01
0.04 0.04 0.05 0.06 0.06 0.05 0.04 0.03 0.03 0.03 0.03 0.02 0.02 0.02 0.05 0.07 0.06 0.03 0.02 0.02 0.03 0.04 0.05 0.04 0.03 0.02 0.02 0.02 0.02 0.02 0.02 0.02 0.02 0.02 0.04 0.05 0.04 0.03 0.02 0.01 0.01 0.01 0.01
0.04 0.03 0.04 0.07 0.08 0.08 0.06 0.05 0.04 0.04 0.03 0.03 0.02 0.02 0.04 0.05 0.05 0.03 0.02 0.01 0.02 0.03 0.03 0.03 0.03 0.03 0.03 0.03 0.03 0.03 0.03 0.03 0.03 0.03 0.02 0.03 0.03 0.03 0.02 0.02 0.02 0.01 0.00
0.05 0.04 0.03 0.04 0.06 0.09 0.09 0.06 0.05 0.03 0.02 0.02 0.03 0.02 0.02 0.03 0.03 0.03 0.02 0.02 0.02 0.02 0.02 0.02 0.03 0.03 0.03 0.04 0.04 0.03 0.04 0.04 0.04 0.04 0.03 0.02 0.02 0.03 0.03 0.03 0.02 0.01 0.01
0.04 0.04 0.03 0.03 0.04 0.06 0.08 0.07 0.07 0.05 0.02 0.01 0.02 0.02 0.02 0.02 0.02 0.02 0.02 0.02 0.03 0.03 0.03 0.03 0.03 0.02 0.03 0.04 0.05 0.05 0.05 0.04 0.04 0.05 0.04 0.03 0.02 0.02 0.02 0.02 0.02 0.02 0.01
0.04 0.03 0.03 0.04 0.04 0.05 0.07 0.08 0.08 0.09 0.06 0.03 0.01 0.02 0.02 0.02 0.02 0.01 0.01 0.01 0.02 0.04 0.05 0.04 0.03 0.03 0.03 0.03 0.04 0.06 0.06 0.05 0.04 0.04 0.05 0.04 0.03 0.02 0.02 0.02 0.02 0.02 0.01
0.04 0.03 0.02 0.03 0.04 0.05 0.07 0.07 0.07 0.08 0.08 0.04 0.02 0.01 0.01 0.02 0.02 0.02 0.01 0.01 0.01 0.02 0.05 0.06 0.06 0.05 0.04 0.04 0.04 0.03 0.04 0.03 0.03 0.04 0.04 0.04 0.04 0.03 0.03 0.02 0.02 0.01 0.01
0.05 0.05 0.03 0.02 0.04 0.05 0.06 0.07 0.07 0.06 0.07 0.06 0.03 0.02 0.01 0.01 0.02 0.02 0.01 0.01 0.01 0.02 0.02 0.04 0.06 0.07 0.06 0.05 0.05 0.04 0.04 0.04 0.04 0.04 0.04 0.04 0.04 0.03 0.03 0.02 0.02 0.01 0.01
0.03 0.06 0.05 0.03 0.04 0.06 0.05 0.06 0.06 0.06 0.07 0.06 0.05 0.03 0.02 0.02 0.02 0.02 0.03 0.02 0.02 0.02 0.02 0.02 0.04 0.05 0.05 0.05 0.06 0.06 0.05 0.06 0.04 0.04 0.03 0.02 0.02 0.03 0.03 0.03 0.02 0.01 0.01
MSLP
1017.36 1017.12 1016.96 1016.93 1017.05 1017.27 1017.53 1017.74 1017.86 1017.87 1017.77 1017.62 1017.47 1017.37 1017.35 1017.42 1017.53 1017.64 1017.72 1017.73 1017.68 1017.57 1017.45 1017.36 1017.30 1017.28 1017.29 1017.29 1017.25 1017.16 1017.00 1016.79 1016.57 1016.38 1016.25 1016.19 1016.19 1016.25 1016.31 1016.35 1016.35 1016.30 1016.23
1017.43 1017.26 1017.17 1017.21 1017.37 1017.60 1017.85 1018.04 1018.12 1018.10 1017.99 1017.85 1017.73 1017.69 1017.74 1017.87 1018.03 1018.18 1018.27 1018.27 1018.19 1018.07 1017.93 1017.81 1017.74 1017.72 1017.72 1017.71 1017.65 1017.53 1017.34 1017.11 1016.86 1016.66 1016.52 1016.47 1016.49 1016.55 1016.62 1016.65 1016.64 1016.57 1016.47
1017.58 1017.47 1017.43 1017.51 1017.69 1017.93 1018.15 1018.30 1018.35 1018.30 1018.19 1018.07 1018.01 1018.03 1018.14 1018.33 1018.53 1018.70 1018.79 1018.78 1018.68 1018.52 1018.35 1018.22 1018.13 1018.10 1018.09 1018.06 1017.98 1017.83 1017.62 1017.36 1017.11 1016.90 1016.78 1016.74 1016.77 1016.85 1016.93 1016.97 1016.94 1016.86 1016.73
1017.82 1017.75 1017.74 1017.85 1018.03 1018.25 1018.45 1018.57 1018.59 1018.52 1018.41 1018.32 1018.30 1018.37 1018.53 1018.76 1018.98 1019.16 1019.24 1019.20 1019.08 1018.89 1018.71 1018.55 1018.45 1018.40 1018.36 1018.31 1018.21 1018.05 1017.82 1017.56 1017.31 1017.11 1017.00 1016.98 1017.03 1017.13 1017.21 1017.25 1017.22 1017.12 1016.98
1018.13 1018.08 1018.10 1018.21 1018.40 1018.60 1018.77 1018.86 1018.86 1018.78 1018.68 1018.61 1018.61 1018.71 1018.90 1019.14 1019.36 1019.53 1019.58 1019.52 1019.37 1019.17 1018.96 1018.79 1018.67 1018.60 1018.55 1018.48 1018.36 1018.17 1017.94 1017.68 1017.44 1017.26 1017.17 1017.17 1017.24 1017.33 1017.42 1017.45 1017.42 1017.32 1017.17
1018.48 1018.43 1018.46 1018.59 1018.77 1018.96 1019.12 1019.19 1019.18 1019.10 1019.01 1018.95 1018.96 1019.07 1019.25 1019.47 1019.67 1019.79 1019.81 1019.73 1019.55 1019.33 1019.12 1018.94 1018.82 1018.73 1018.66 1018.56 1018.42 1018.22 1017.98 1017.72 1017.49 1017.34 1017.27 1017.28 1017.35 1017.45 1017.52 1017.55 1017.51 1017.41 1017.26
1018.84 1018.79 1018.82 1018.95 1019.13 1019.33 1019.48 1019.55 1019.54 1019.48 1019.39 1019.34 1019.35 1019.44 1019.59 1019.77 1019.91 1019.98 1019.96 1019.84 1019.65 1019.43 1019.21 1019.03 1018.90 1018.80 1018.71 1018.58 1018.42 1018.20 1017.95 1017.70 1017.49 1017.34 1017.28 1017.30 1017.37 1017.45 1017.51 1017.52 1017.46 1017.36 1017.22
1019.19 1019.13 1019.16 1019.29 1019.48 1019.67 1019.83 1019.92 1019.93 1019.89 1019.82 1019.78 1019.78 1019.84 1019.95 1020.06 1020.13 1020.14 1020.07 1019.91 1019.71 1019.49 1019.28 1019.10 1018.97 1018.85 1018.73 1018.58 1018.38 1018.14 1017.88 1017.63 1017.42 1017.29 1017.23 1017.24 1017.29 1017.35 1017.38 1017.36 1017.29 1017.17 1017.04
1019.51 1019.44 1019.47 1019.60 1019.79 1020.00 1020.17 1020.28 1020.33 1020.32 1020.28 1020.25 1020.25 1020.28 1020.33 1020.37 1020.38 1020.32 1020.19 1020.01 1019.79 1019.57 1019.37 1019.20 1019.06 1018.93 1018.78 1018.59 1018.36 1018.09 1017.81 1017.55 1017.34 1017.20 1017.14 1017.14 1017.17 1017.19 1017.18 1017.12 1017.02 1016.89 1016.75
1019.84 1019.76 1019.78 1019.91 1020.09 1020.30 1020.49 1020.63 1020.71 1020.74 1020.74 1020.73 1020.74 1020.75 1020.76 1020.74 1020.68 1020.56 1020.38 1020.17 1019.94 1019.72 1019.53 1019.37 1019.22 1019.07 1018.89 1018.67 1018.39 1018.09 1017.77 1017.49 1017.27 1017.13 1017.05 1017.03 1017.03 1017.02 1016.97 1016.87 1016.74 1016.58 1016.43
1020.19 1020.11 1020.13 1020.25 1020.42 1020.62 1020.81 1020.96 1021.08 1021.15 1021.19 1021.22 1021.24 1021.25 1021.23 1021.17 1021.06 1020.89 1020.68 1020.44 1020.21 1019.99 1019.80 1019.64 1019.49 1019.31 1019.10 1018.83 1018.51 1018.16 1017.81 1017.51 1017.27 1017.11 1017.02 1016.98 1016.96 1016.91 1016.82 1016.69 1016.51 1016.32 1016.15
1020.59 1020.53 1020.55 1020.65 1020.81 1020.98 1021.16 1021.31 1021.44 1021.55 1021.64 1021.71 1021.76 1021.78 1021.76 1021.68 1021.53 1021.33 1021.09 1020.84 1020.60 1020.38 1020.20 1020.03 1019.86 1019.67 1019.41 1019.10 1018.73 1018.34 1017.96 1017.62 1017.36 1017.19 1017.08 1017.03 1016.98 1016.92 1016.80 1016.64 1016.43 1016.21 1015.99
1021.05 1021.03 1021.06 1021.15 1021.28 1021.42 1021.56 1021.70 1021.83 1021.96 1022.08 1022.20 1022.28 1022.33 1022.32 1022.24 1022.08 1021.87 1021.61 1021.35 1021.11 1020.89 1020.70 1020.53 1020.35 1020.13 1019.84 1019.48 1019.07 1018.63 1018.21 1017.84 1017.56 1017.37 1017.26 1017.20 1017.15 1017.07 1016.95 1016.77 1016.54 1016.28 1016.03
1021.56 1021.59 1021.65 1021.74 1021.83 1021.93 1022.03 1022.14 1022.26 1022.39 1022.54 1022.69 1022.81 1022.89 1022.90 1022.83 1022.69 1022.47 1022.22 1021.95 1021.70 1021.49 1021.30 1021.12 1020.91 1020.66 1020.34 1019.95 1019.50 1019.02 1018.56 1018.17 1017.86 1017.66 1017.54 1017.48 1017.44 1017.38 1017.26 1017.08 1016.85 1016.57 1016.29
1022.08 1022.18 1022.28 1022.37 1022.44 1022.50 1022.56 1022.63 1022.73 1022.86 1023.02 1023.19 1023.34 1023.45 1023.49 1023.44 1023.31 1023.11 1022.86 1022.60 1022.35 1022.13 1021.94 1021.74 1021.53 1021.25 1020.90 1020.48 1019.99 1019.48 1018.99 1018.57 1018.25 1018.03 1017.91 1017.87 1017.85 1017.81 1017.72 1017.57 1017.34 1017.06 1016.75
1022.55 1022.73 1022.87 1022.97 1023.04 1023.08 1023.11 1023.16 1023.24 1023.36 1023.52 1023.70 1023.88 1024.01 1024.07 1024.04 1023.93 1023.74 1023.51 1023.26 1023.01 1022.79 1022.59 1022.38 1022.15 1021.85 1021.48 1021.03 1020.52 1019.99 1019.48 1019.04 1018.69 1018.47 1018.35 1018.32 1018.32 1018.32 1018.28 1018.16 1017.96 1017.69 1017.36
1022.92 1023.16 1023.35 1023.49 1023.57 1023.62 1023.65 1023.69 1023.76 1023.88 1024.04 1024.22 1024.40 1024.54 1024.62 1024.61 1024.51 1024.35 1024.13 1023.89 1023.66 1023.44 1023.22 1023.01 1022.76 1022.45 1022.06 1021.60 1021.08 1020.53 1020.01 1019.55 1019.19 1018.95 1018.84 1018.81 1018.84 1018.87 1018.87 1018.80 1018.64 1018.38 1018.05
1023.16 1023.45 1023.68 1023.86 1023.98 1024.06 1024.12 1024.18 1024.27 1024.39 1024.55 1024.73 1024.91 1025.05 1025.13 1025.13 1025.05 1024.91 1024.71 1024.49 1024.27 1024.05 1023.84 1023.61 1023.36 1023.04 1022.65 1022.18 1021.65 1021.11 1020.57 1020.11 1019.73 1019.49 1019.36 1019.33 1019.37 1019.43 1019.46 1019.42 1019.30 1019.06 1018.73
1023.27 1023.58 1023.84 1024.07 1024.24 1024.38 1024.49 1024.61 1024.73 1024.88 1025.05 1025.22 1025.39 1025.52 1025.60 1025.61 1025.54 1025.42 1025.25 1025.05 1024.85 1024.65 1024.44 1024.21 1023.95 1023.63 1023.24 1022.78 1022.27 1021.73 1021.20 1020.73 1020.35 1020.09 1019.94 1019.89 1019.92 1019.97 1020.01 1020.00 1019.89 1019.68 1019.35
1023.29 1023.58 1023.87 1024.13 1024.37 1024.58 1024.77 1024.96 1025.14 1025.32 1025.51 1025.68 1025.83 1025.95 1026.01 1026.03 1025.98 1025.88 1025.75 1025.59 1025.41 1025.23 1025.03 1024.81 1024.55 1024.24 1023.86 1023.42 1022.93 1022.41 1021.91 1021.44 1021.05 1020.77 1020.58 1020.50 1020.49 1020.51 1020.53 1020.50 1020.40 1020.18 1019.85
1023.25 1023.52 1023.80 1024.10 1024.39 1024.69 1024.97 1025.24 1025.49 1025.72 1025.92 1026.09 1026.23 1026.32 1026.38 1026.39 1026.37 1026.30 1026.21 1026.10 1025.96 1025.81 1025.64 1025.43 1025.18 1024.88 1024.53 1024.12 1023.66 1023.18 1022.70 1022.25 1021.86 1021.55 1021.32 1021.18 1021.10 1021.06 1021.02 1020.95 1020.81 1020.57 1020.22
1023.21 1023.45 1023.72 1024.04 1024.39 1024.75 1025.12 1025.47 1025.79 1026.06 1026.28 1026.44 1026.56 1026.64 1026.69 1026.70 1026.70 1026.68 1026.64 1026.58 1026.50 1026.39 1026.25 1026.06 1025.83 1025.56 1025.23 1024.85 1024.45 1024.01 1023.58 1023.15 1022.77 1022.43 1022.15 1021.93 1021.76 1021.62 1021.49 1021.34 1021.13 1020.85 1020.48
1023.20 1023.41 1023.68 1024.01 1024.39 1024.82 1025.25 1025.67 1026.04 1026.34 1026.57 1026.73 1026.83 1026.89 1026.93 1026.96 1026.99 1027.02 1027.04 1027.04 1027.02 1026.96 1026.85 1026.69 1026.49 1026.23 1025.94 1025.61 1025.25 1024.88 1024.49 1024.10 1023.73 1023.37 1023.03 1022.73 1022.45 1022.19 1021.94 1021.68 1021.38 1021.04 1020.62
1023.20 1023.42 1023.68 1024.02 1024.43 1024.90 1025.38 1025.84 1026.25 1026.57 1026.81 1026.96 1027.04 1027.09 1027.13 1027.17 1027.23 1027.31 1027.39 1027.46 1027.49 1027.48 1027.41 1027.28 1027.09 1026.87 1026.61 1026.32 1026.02 1025.71 1025.38 1025.04 1024.68 1024.30 1023.92 1023.52 1023.13 1022.74 1022.36 1021.97 1021.57 1021.14 1020.66
1023.17 1023.42 1023.71 1024.07 1024.50 1024.99 1025.50 1025.98 1026.41 1026.74 1026.98 1027.12 1027.19 1027.24 1027.28 1027.34 1027.44 1027.56 1027.70 1027.82 1027.91 1027.93 1027.89 1027.78 1027.62 1027.41 1027.18 1026.94 1026.69 1026.44 1026.17 1025.87 1025.54 1025.16 1024.73 1024.26 1023.76 1023.25 1022.72 1022.20 1021.69 1021.16 1020.62
1023.05 1023.37 1023.71 1024.09 1024.54 1025.05 1025.57 1026.07 1026.50 1026.84 1027.08 1027.22 1027.29 1027.34 1027.40 1027.48 1027.61 1027.78 1027.96 1028.12 1028.24 1028.30 1028.28 1028.18 1028.02 1027.82 1027.61 1027.41 1027.20 1027.00 1026.79 1026.55 1026.25 1025.87 1025.41 1024.88 1024.29 1023.66 1023.01 1022.36 1021.73 1021.11 1020.50
Thickness
5745 5744 5742 5742 5741 5740 5740 5739 5738 5738 5737 5737 5737 5736 5735 5735 5734 5734 5734 5733 5732 5732 5732 5731 5731 5730 5729 5729 5728 5727 5727 5726 5725 5724 5724 5723 5722 5721 5720 5719 5718 5717 5716
5746 5743 5740 5739 5738 5738 5737 5736 5735 5735 5734 5734 5734 5733 5732 5732 5731 5731 5730 5730 5729 5729 5728 5728 5727 5727 5726 5726 5725 5724 5724 5723 5722 5721 5720 5720 5719 5718 5717 5716 5715 5714 5713
5744 5740 5738 5737 5736 5735 5734 5733 5732 5732 5731 5731 5730 5730 5729 5729 5728 5728 5727 5726 5726 5725 5725 5724 5724 5723 5722 5722 5722 5721 5721 5720 5719 5718 5718 5717 5716 5715 5714 5713 5712 5711 5710
5741 5737 5735 5734 5733 5732 5731 5730 5729 5729 5728 5727 5727 5726 5726 5725 5725 5724 5723 5723 5722 5722 5721 5721 5720 5719 5719 5718 5718 5718 5717 5717 5716 5716 5715 5713 5713 5711 5710 5709 5708 5707 5706
5737 5734 5731 5730 5729 5728 5728 5727 5726 5725 5724 5723 5723 5722 5722 5721 5721 5720 5719 5719 5718 5718 5717 5717 5716 5716 5715 5715 5714 5714 5714 5714 5713 5712 5711 5710 5709 5708 5707 5706 5704 5703 5703
5732 5729 5727 5726 5725 5725 5724 5723 5722 5721 5721 5720 5719 5719 5718 5717 5716 5716 5715 5715 5714 5713 5713 5713 5713 5712 5712 5711 5711 5711 5711 5711 5710 5709 5707 5706 5705 5704 5703 5702 5701 5700 5699
5726 5725 5722 5721 5721 5720 5719 5719 5718 5717 5717 5716 5715 5714 5714 5713 5712 5711 5711 5710 5710 5709 5709 5709 5709 5708 5708 5707 5707 5707 5707 5707 5707 5705 5703 5702 5701 5700 5699 5698 5697 5696 5695
5721 5720 5717 5716 5716 5715 5715 5714 5713 5713 5712 5711 5711 5710 5709 5708 5708 5707 5706 5706 5705 5705 5705 5704 5704 5704 5704 5703 5703 5703 5704 5704 5703 5702 5700 5698 5697 5697 5695 5694 5693 5692 5691
5716 5714 5712 5710 5710 5710 5710 5709 5709 5708 5707 5707 5706 5705 5705 5704 5703 5702 5702 5701 5701 5700 5700 5700 5700 5700 5699 5699 5699 5699 5700 5700 5699 5698 5696 5694 5693 5692 5691 5690 5689 5687 5686
5708 5708 5706 5705 5705 5704 5704 5704 5703 5703 5702 5702 5701 5701 5700 5699 5698 5698 5697 5697 5696 5696 5696 5695 5695 5695 5695 5695 5695 5695 5696 5696 5695 5693 5692 5690 5689 5688 5687 5685 5684 5683 5682
5699 5700 5700 5700 5699 5699 5698 5698 5697 5697 5697 5696 5696 5696 5695 5695 5694 5693 5692 5692 5691 5691 5691 5690 5690 5690 5690 5690 5690 5691 5691 5691 5691 5689 5687 5686 5685 5684 5682 5681 5679 5678 5677
5690 5692 5694 5694 5694 5693 5692 5692 5692 5691 5691 5691 5690 5691 5691 5691 5690 5689 5688 5687 5686 5686 5686 5685 5685 5685 5685 5685 5685 5686 5686 5686 5686 5684 5683 5681 5680 5679 5677 5676 5675 5673 5672
5682 5684 5686 5687 5687 5687 5687 5686 5686 5686 5685 5686 5686 5686 5686 5686 5685 5684 5682 5682 5681 5681 5681 5680 5680 5681 5681 5681 5681 5681 5681 5681 5680 5679 5677 5676 5675 5674 5672 5671 5669 5668 5667
5675 5677 5679 5680 5680 5680 5681 5681 5681 5680 5680 5681 5681 5681 5681 5681 5680 5679 5677 5677 5676 5676 5675 5675 5675 5676 5676 5676 5676 5676 5676 5676 5675 5673 5672 5671 5669 5668 5667 5665 5664 5663 5662
5667 5669 5671 5673 5673 5673 5674 5674 5674 5674 5674 5675 5675 5676 5676 5675 5675 5674 5672 5671 5671 5670 5670 5670 5670 5671 5671 5671 5671 5671 5671 5670 5669 5668 5666 5665 5663 5662 5661 5659 5658 5657 5656
5659 5661 5663 5664 5666 5666 5666 5666 5667 5667 5668 5668 5669 5669 5669 5669 5669 5668 5667 5666 5665 5665 5664 5664 5664 5665 5665 5665 5665 5665 5665 5665 5663 5662 5660 5658 5657 5655 5654 5652 5651 5650 5649
5652 5654 5656 5657 5658 5659 5659 5659 5660 5661 5661 5661 5661 5662 5662 5662 5662 5661 5660 5659 5659 5658 5658 5658 5658 5658 5658 5658 5658 5658 5659 5658 5657 5656 5653 5651 5650 5648 5646 5645 5644 5643 5641
5644 5645 5647 5649 5650 5651 5651 5652 5653 5653 5653 5654 5654 5654 5654 5655 5655 5654 5653 5652 5651 5650 5650 5650 5650 5649 5649 5649 5649 5650 5651 5651 5650 5649 5647 5644 5643 5640 5638 5637 5635 5634 5633
5635 5636 5638 5640 5641 5642 5643 5644 5644 5645 5645 5645 5646 5646 5646 5647 5646 5646 5645 5644 5643 5642 5641 5641 5641 5640 5640 5640 5641 5641 5641 5642 5642 5641 5639 5637 5635 5633 5631 5629 5626 5625 5624
5627 5628 5629 5631 5631 5633 5634 5634 5635 5636 5637 5637 5638 5638 5638 5638 5637 5637 5636 5636 5635 5633 5632 5632 5631 5632 5632 5631 5632 5632 5632 5633 5632 5632 5630 5629 5627 5625 5623 5621 5618 5616 5615
5617 5619 5619 5621 5621 5622 5623 5624 5624 5626 5627 5628 5629 5629 5629 5629 5629 5628 5628 5627 5626 5625 5624 5624 5622 5622 5622 5622 5620 5620 5622 5624 5623 5623 5622 5620 5619 5617 5615 5613 5611 5609 5607
5607 5608 5610 5611 5613 5614 5615 5615 5616 5617 5618 5620 5620 5620 5620 5620 5620 5619 5619 5618 5617 5616 5615 5615 5614 5613 5612 5612 5610 5608 5608 5611 5613 5615 5613 5612 5610 5609 5608 5606 5604 5602 5599
5596 5598 5601 5603 5604 5605 5605 5606 5607 5607 5609 5609 5609 5611 5611 5612 5611 5611 5610 5609 5608 5608 5607 5606 5605 5604 5602 5602 5602 5600 5598 5600 5602 5604 5604 5604 5602 5600 5599 5598 5596 5594 5591
5586 5589 5591 5593 5595 5595 5596 5597 5597 5597 5598 5599 5601 5601 5602 5603 5602 5602 5602 5601 5600 5599 5598 5598 5597 5595 5594 5592 5592 5593 5592 5593 5592 5592 5593 5594 5593 5592 5590 5589 5587 5585 5582
5577 5579 5581 5582 5584 5585 5586 5587 5588 5588 5590 5591 5592 5592 5592 5593 5593 5593 5592 5592 5591 5590 5590 5589 5588 5587 5585 5584 5583 5582 5582 5583 5584 5582 5582 5582 5582 5582 5581 5580 5578 5576 5574
5568 5569 5570 5572 5574 5576 5577 5578 5579 5580 5581 5581 5581 5581 5582 5583 5583 5583 5583 5582 5582 5581 5581 5580 5579 5578 5576 5575 5575 5574 5573 5573 5573 5572 5572 5571 5571 5572 5571 5570 5568 5566 5565